This is the latest recevied weather packets stored in our database for station/object KE4LOJ. If no packets are shown the sender has not sent any weather packets the latest 10 day(s).
| Time | Temp. | Humidity | Pressure | Rain* | Wind** | Luminosity | Snow |
|---|---|---|---|---|---|---|---|
| 1777810610 | 17.78° C | 93% | 1017.4 hPa | 0 mm | - | 61 W/m² | - |
| 1777810307 | 17.22° C | 93% | 1017.4 hPa | 0 mm | - | 59 W/m² | - |
| 1777810003 | 17.22° C | 94% | 1017.4 hPa | 0 mm | - | 53 W/m² | - |
| 1777809701 | 17.22° C | 94% | 1017.4 hPa | 0 mm | - | 46 W/m² | - |
| 1777809398 | 17.22° C | 94% | 1017.4 hPa | 0 mm | - | 46 W/m² | - |
| 1777809096 | 17.22° C | 94% | 1017.3 hPa | 0 mm | - | 48 W/m² | - |
| 1777808793 | 17.22° C | 94% | 1017.1 hPa | 0 mm | - | 54 W/m² | - |
| 1777808490 | 17.22° C | 94% | 1017 hPa | 0 mm | - | 27 W/m² | - |
| 1777808188 | 17.22° C | 94% | 1016.8 hPa | 0 mm | - | 33 W/m² | - |
| 1777807886 | 17.22° C | 94% | 1017 hPa | 0 mm | - | 32 W/m² | - |
| 1777807584 | 17.22° C | 94% | 1017.1 hPa | 0 mm | - | 22 W/m² | - |
| 1777807280 | 17.22° C | 94% | 1016.9 hPa | 0 mm | - | 20 W/m² | - |
| 1777806977 | 17.22° C | 94% | 1017 hPa | 0 mm | - | 13 W/m² | - |
| 1777806673 | 17.22° C | 94% | 1016.9 hPa | 0 mm | - | 12 W/m² | - |
| 1777806369 | 17.22° C | 94% | 1016.8 hPa | 0 mm | - | 14 W/m² | - |
| 1777806066 | 17.22° C | 94% | 1016.8 hPa | 0 mm | - | 9 W/m² | - |
| 1777805762 | 17.22° C | 95% | 1016.9 hPa | 0 mm | - | 7 W/m² | - |
| 1777805460 | 17.22° C | 95% | 1016.8 hPa | 0 mm | - | 4 W/m² | - |
| 1777805158 | 17.22° C | 95% | 1016.6 hPa | 0 mm | - | 2 W/m² | - |
| 1777804855 | 17.22° C | 95% | 1016.7 hPa | 0 mm | - | 1 W/m² | - |
| 1777804553 | 17.22° C | 95% | 1016.7 hPa | 0 mm | - | 0 W/m² | - |
| 1777804250 | 17.22° C | 95% | 1016.5 hPa | 0 mm | - | 0 W/m² | - |
| 1777803947 | 17.22° C | 95% | 1016.3 hPa | 0 mm | - | 0 W/m² | - |
| 1777803644 | 17.22° C | 95% | 1016.5 hPa | 0 mm | - | 0 W/m² | - |
| 1777803340 | 17.22° C | 96% | 1016.2 hPa | 0 mm | - | 0 W/m² | - |
* Rain latest hour (hover to see other rain measurements)
** Current wind speed in m/s (hover to see current wind gust speed)